Location: Córrego Montividiu
(13.2496°S, 48.8603°W)
Time: 10:44:18
(UTC+00:00)

Cosmos 1707 - Pass Details

Date: 11 March 2026
Orbit: 351 x 356 km, 82.5° (Epoch: 21 April)

Event Time Altitude Azimuth Distance (km) Brightness Sun altitude
Rises 22:00:08 0° 359° (N) 2,238 5.9 -7.7°
Reaches altitude 10° 22:02:07 10° 2° (N) 1,389 4.8 -8.1°
Maximum altitude 22:05:07 71° 86° (E) 403 1.9 -8.9°
Drops below altitude 10° 22:08:07 10° 171° (S) 1,392 4.9 -9.6°
Sets 22:10:06 0° 173° (S) 2,243 5.9 -10.1°
